Flag for Switzerland Weather past 2 weeks in Lugano, Switzerland

Now
66 °F

Passing clouds.


Feels Like: 66 °F
Forecast: 43 / 58 °F
Wind: 12 mph from North

Location: Lugano Airport

Current Time: Mar 31, 2015 at 8:48:45 PM

Latest Report: Mar 31, 2015 at 8:20 PM


Visibility: N/A

Pressure: 29.71 "Hg

Humidity: 26%

Dew point: 30 °F

Location of LuganoLocation

Historic Weather in Lugano — Graph

°F

Lugano temperature yesterday

Maximum temperature yesterday: 68 °F (at 1:50 PM)
Minimum temperature yesterday: 43 °F (at 5:20 AM)
Average temperature yesterday: 54 °F

Past Weeks' High & Low Weather Summary

 TemperatureHumidityPressure
High77 °F (Mar 31, 4:50 PM)100% (Mar 16, 7:20 PM)30.39 "Hg (Mar 16, 7:20 PM)
Low34 °F (Mar 18, 5:50 AM)19% (Mar 27, 1:20 PM)29.50 "Hg (Mar 25, 5:50 PM)
Average51 °F73%29.97 "Hg
* Reported Mar 16 6:20 PM — Mar 31 7:20 PM, Lugano, Weather by CustomWeather, © 2015

Note: Actual official high and low records may vary slightly from our data, if they occured in-between our weather recording intervals... More about our weather records

Advertising

Lugano weather history for previous 24 hours

 ConditionsComfort  
Time TempWeatherWind HumidityBarometerVisibility
7:20 PM
Tue, Mar 31
66 °FPassing clouds.17 mph26%29.65 "HgN/A
6:50 PM68 °FPassing clouds.14 mph26%29.65 "HgN/A
6:20 PM70 °FPassing clouds.20 mph27%29.65 "HgN/A
5:50 PM72 °FPassing clouds.20 mph27%29.62 "HgN/A
5:20 PM73 °FPassing clouds.20 mph23%29.59 "HgN/A
4:50 PM77 °FPassing clouds.13 mph21%29.59 "HgN/A
4:20 PM73 °FPassing clouds.17 mph31%29.59 "HgN/A
3:50 PM73 °FPassing clouds.13 mph33%29.59 "HgN/A
3:20 PM73 °FPassing clouds.9 mph36%29.62 "HgN/A
2:50 PM73 °FPassing clouds.9 mph33%29.65 "HgN/A
2:20 PM72 °FPassing clouds.8 mph36%29.68 "HgN/A
1:50 PM70 °FPassing clouds.6 mph38%29.68 "HgN/A
1:20 PM70 °FPassing clouds.2 mph40%29.71 "HgN/A
12:50 PM68 °FPassing clouds.3 mph40%29.74 "HgN/A
12:20 PM63 °FSunny.6 mph49%29.74 "Hg10 mi
11:50 AM61 °FSunny.5 mph52%29.77 "Hg10 mi
11:20 AM63 °FSunny.1 mph49%29.77 "Hg10 mi
10:50 AM57 °FPassing clouds.3 mph55%29.80 "HgN/A
10:20 AM57 °FSunny.1 mph59%29.80 "Hg10 mi
9:50 AM55 °FSunny.1 mph59%29.80 "Hg10 mi
9:20 AM52 °FSunny.2 mph72%29.83 "Hg10 mi
8:50 AM48 °FSunny.1 mph76%29.83 "Hg10 mi
8:20 AM45 °FSunny.1 mph81%29.83 "Hg10 mi
7:50 AM45 °FPassing clouds.3 mph81%29.83 "HgN/A
7:20 AM45 °FPassing clouds.3 mph81%29.83 "HgN/A
6:50 AM46 °FClear.3 mph76%29.83 "Hg10 mi
6:20 AM46 °FClear.5 mph76%29.83 "Hg10 mi
5:50 AM50 °FClear.6 mph67%29.83 "Hg10 mi
5:20 AM50 °FPassing clouds.8 mph71%29.83 "HgN/A
4:50 AM50 °FPassing clouds.7 mph71%29.83 "HgN/A
4:20 AM48 °FClear.6 mph76%29.83 "Hg10 mi
3:50 AM50 °FClear.2 mph67%29.83 "Hg10 mi
3:20 AM50 °FCool.5 mph67%29.83 "HgN/A
2:50 AM55 °FClear.7 mph51%29.86 "Hg10 mi
2:20 AM55 °FPassing clouds.10 mph51%29.89 "HgN/A
1:20 AM55 °FClear.17 mph51%29.86 "Hg10 mi
12:50 AM55 °FClear.20 mph51%29.86 "Hg10 mi
12:20 AM55 °FClear.15 mph55%29.86 "Hg10 mi
11:50 PM
Mon, Mar 30
54 °FClear.15 mph58%29.86 "Hg10 mi
11:20 PM54 °FClear.18 mph58%29.86 "Hg10 mi
10:50 PM55 °FRefreshingly cool.16 mph55%29.86 "HgN/A
10:20 PM54 °FClear.18 mph63%29.86 "HgN/A
9:50 PM54 °FPartly cloudy.15 mph63%29.86 "HgN/A
9:20 PM54 °FPartly cloudy.14 mph63%29.86 "HgN/A
8:50 PM55 °FPartly cloudy.14 mph63%29.83 "HgN/A
8:20 PM55 °FBroken clouds.8 mph67%29.83 "HgN/A
Weather by CustomWeather, © 2015

See weather overviewHow to use our weather pages